Tiempo cada hora Allende

Hoy, 27 Julio, Martes

Tiempo Temperatura Precipitaciones Viento Presión Humedad
00:00 +30°C° 0 mm 4 mps 728 mmHg 49%
01:00 +29°C° 0 mm 4 mps 728 mmHg 57%
02:00 +28°C° 0 mm 4 mps 727 mmHg 65%
03:00 +27°C° 0 mm 3 mps 727 mmHg 67%
04:00 +27°C° 0 mm 3 mps 727 mmHg 69%
05:00 +26°C° 0 mm 2 mps 727 mmHg 71%
06:00 +28°C° 0 mm 2 mps 728 mmHg 63%
07:00 +30°C° 0 mm 3 mps 728 mmHg 56%
08:00 +33°C° 0 mm 3 mps 729 mmHg 48%
09:00 +35°C° 0 mm 3 mps 729 mmHg 39%
10:00 +36°C° 0 mm 3 mps 729 mmHg 31%
11:00 +38°C° 0 mm 4 mps 729 mmHg 22%
12:00 +40°C° 0 mm 4 mps 728 mmHg 20%
13:00 +41°C° 0 mm 4 mps 728 mmHg 18%
14:00 +42°C° 0 mm 4 mps 727 mmHg 15%
15:00 +41°C° 0 mm 5 mps 727 mmHg 15%
16:00 +41°C° 0 mm 5 mps 727 mmHg 15%
17:00 +41°C° 0 mm 5 mps 726 mmHg 16%
18:00 +39°C° 0 mm 5 mps 727 mmHg 19%
19:00 +36°C° 0 mm 5 mps 727 mmHg 23%
20:00 +34°C° 0 mm 4 mps 727 mmHg 26%
21:00 +33°C° 0 mm 4 mps 727 mmHg 32%
22:00 +32°C° 0 mm 5 mps 728 mmHg 38%
23:00 +32°C° 0 mm 5 mps 728 mmHg 43%

Mañana, 28 Julio, Miércoles

Tiempo Temperatura Precipitaciones Viento Presión Humedad
00:00 +30°C° 0 mm 4 mps 728 mmHg 48%
01:00 +29°C° 0 mm 4 mps 727 mmHg 53%
02:00 +28°C° 0 mm 3 mps 727 mmHg 58%
03:00 +28°C° 0 mm 2 mps 728 mmHg 60%
04:00 +27°C° 0 mm 2 mps 728 mmHg 62%
05:00 +27°C° 0 mm 1 mps 728 mmHg 64%
06:00 +28°C° 0 mm 1 mps 728 mmHg 60%
07:00 +29°C° 0 mm 1 mps 729 mmHg 56%
08:00 +31°C° 0 mm 1 mps 729 mmHg 52%
09:00 +32°C° 0 mm 2 mps 729 mmHg 47%
10:00 +35°C° 0 mm 3 mps 729 mmHg 41%
11:00 +37°C° 0 mm 3 mps 729 mmHg 35%
12:00 +37°C° 0 mm 4 mps 728 mmHg 32%
13:00 +38°C° 0 mm 4 mps 728 mmHg 29%
14:00 +40°C° 0 mm 4 mps 727 mmHg 25%
15:00 +40°C° 0 mm 4 mps 727 mmHg 24%
16:00 +40°C° 0 mm 5 mps 726 mmHg 23%
17:00 +40°C° 0 mm 5 mps 726 mmHg 23%
18:00 +37°C° 0 mm 4 mps 726 mmHg 25%
19:00 +36°C° 0 mm 4 mps 726 mmHg 28%
20:00 +35°C° 0 mm 4 mps 726 mmHg 31%
21:00 +34°C° 0 mm 5 mps 727 mmHg 39%
22:00 +33°C° 0 mm 6 mps 727 mmHg 47%
23:00 +32°C° 0 mm 7 mps 728 mmHg 55%

Pasado mañana, 29 Julio, Jueves

Tiempo Temperatura Precipitaciones Viento Presión Humedad
00:00 +30°C° 0.4 mm 6 mps 727 mmHg 60%
01:00 +29°C° 0.4 mm 5 mps 727 mmHg 65%
02:00 +28°C° 0.4 mm 4 mps 727 mmHg 70%
03:00 +28°C° 0 mm 3 mps 727 mmHg 72%
04:00 +27°C° 0 mm 3 mps 728 mmHg 74%
05:00 +27°C° 0 mm 2 mps 728 mmHg 76%
06:00 +28°C° 0 mm 2 mps 728 mmHg 72%
07:00 +29°C° 0 mm 3 mps 729 mmHg 67%
08:00 +30°C° 0 mm 3 mps 729 mmHg 63%
09:00 +33°C° 0 mm 3 mps 729 mmHg 55%
10:00 +34°C° 0 mm 3 mps 729 mmHg 46%
11:00 +36°C° 0 mm 3 mps 729 mmHg 38%
12:00 +37°C° 0 mm 4 mps 728 mmHg 33%
13:00 +38°C° 0 mm 4 mps 728 mmHg 28%
14:00 +40°C° 0 mm 4 mps 727 mmHg 24%
15:00 +40°C° 0 mm 5 mps 727 mmHg 23%
16:00 +40°C° 0 mm 5 mps 727 mmHg 23%
17:00 +40°C° 0 mm 6 mps 726 mmHg 22%
18:00 +37°C° 0 mm 5 mps 727 mmHg 24%
19:00 +36°C° 0 mm 4 mps 727 mmHg 27%
20:00 +34°C° 0 mm 3 mps 727 mmHg 29%
21:00 +33°C° 0 mm 4 mps 728 mmHg 35%
22:00 +32°C° 0 mm 5 mps 728 mmHg 40%
23:00 +30°C° 0 mm 6 mps 728 mmHg 45%

30 Julio, Viernes

Tiempo Temperatura Precipitaciones Viento Presión Humedad
00:00 +29°C° 0 mm 6 mps 728 mmHg 51%
01:00 +29°C° 0 mm 5 mps 728 mmHg 58%
02:00 +28°C° 0 mm 4 mps 728 mmHg 64%
03:00 +28°C° 0 mm 3 mps 728 mmHg 67%
04:00 +27°C° 0 mm 3 mps 728 mmHg 71%
05:00 +27°C° 0 mm 2 mps 729 mmHg 74%
06:00 +28°C° 0 mm 2 mps 729 mmHg 71%
07:00 +29°C° 0 mm 2 mps 730 mmHg 68%
08:00 +30°C° 0 mm 2 mps 730 mmHg 64%
09:00 +32°C° 0 mm 2 mps 730 mmHg 56%
10:00 +34°C° 0 mm 3 mps 730 mmHg 47%
11:00 +36°C° 0 mm 3 mps 730 mmHg 38%
12:00 +37°C° 0 mm 3 mps 729 mmHg 35%
13:00 +38°C° 0 mm 3 mps 729 mmHg 31%
14:00 +40°C° 0 mm 4 mps 728 mmHg 27%
15:00 +40°C° 0 mm 4 mps 728 mmHg 27%
16:00 +40°C° 0 mm 4 mps 728 mmHg 26%
17:00 +40°C° 0 mm 4 mps 728 mmHg 26%
18:00 +37°C° 0 mm 3 mps 728 mmHg 29%
19:00 +36°C° 0 mm 2 mps 728 mmHg 32%
20:00 +35°C° 0 mm 2 mps 728 mmHg 35%
21:00 +34°C° 0 mm 4 mps 728 mmHg 40%
22:00 +34°C° 0 mm 6 mps 728 mmHg 44%
23:00 +33°C° 0 mm 8 mps 729 mmHg 49%

31 Julio, Sábado

Tiempo Temperatura Precipitaciones Viento Presión Humedad
00:00 +32°C° 0 mm 7 mps 728 mmHg 54%
01:00 +30°C° 0 mm 6 mps 728 mmHg 58%
02:00 +29°C° 0 mm 6 mps 728 mmHg 63%
03:00 +29°C° 0 mm 5 mps 728 mmHg 66%
04:00 +28°C° 0 mm 4 mps 729 mmHg 69%
05:00 +28°C° 0 mm 3 mps 729 mmHg 71%
06:00 +29°C° 0 mm 3 mps 729 mmHg 66%
07:00 +30°C° 0 mm 3 mps 730 mmHg 61%
08:00 +33°C° 0 mm 3 mps 730 mmHg 55%
09:00 +34°C° 0 mm 3 mps 730 mmHg 49%
10:00 +36°C° 0 mm 3 mps 730 mmHg 42%
11:00 +38°C° 0 mm 4 mps 729 mmHg 36%
12:00 +40°C° 0 mm 4 mps 729 mmHg 33%
13:00 +41°C° 0 mm 4 mps 728 mmHg 29%
14:00 +42°C° 0 mm 4 mps 728 mmHg 26%
15:00 +42°C° 0 mm 5 mps 727 mmHg 26%
16:00 +41°C° 0 mm 5 mps 727 mmHg 26%
17:00 +41°C° 0 mm 5 mps 727 mmHg 25%
18:00 +40°C° 0 mm 5 mps 727 mmHg 27%
19:00 +37°C° 0 mm 4 mps 727 mmHg 30%
20:00 +36°C° 0 mm 4 mps 727 mmHg 32%
21:00 +35°C° 0 mm 5 mps 727 mmHg 40%
22:00 +34°C° 0 mm 7 mps 727 mmHg 48%
23:00 +33°C° 0 mm 8 mps 728 mmHg 55%

1 Agosto, Domingo

Tiempo Temperatura Precipitaciones Viento Presión Humedad
00:00 +32°C° 0 mm 8 mps 728 mmHg 58%
01:00 +30°C° 0 mm 7 mps 727 mmHg 61%
02:00 +30°C° 0 mm 6 mps 727 mmHg 63%
03:00 +29°C° 0 mm 5 mps 727 mmHg 64%
04:00 +29°C° 0 mm 4 mps 728 mmHg 65%
05:00 +28°C° 0 mm 2 mps 728 mmHg 66%
06:00 +29°C° 0 mm 3 mps 728 mmHg 62%
07:00 +31°C° 0 mm 3 mps 729 mmHg 58%
08:00 +33°C° 0 mm 3 mps 729 mmHg 54%
09:00 +35°C° 0 mm 4 mps 729 mmHg 47%
10:00 +37°C° 0 mm 4 mps 729 mmHg 40%
11:00 +40°C° 0 mm 4 mps 728 mmHg 34%
12:00 +41°C° 0 mm 5 mps 728 mmHg 31%
13:00 +41°C° 0 mm 5 mps 727 mmHg 28%
14:00 +42°C° 0 mm 6 mps 727 mmHg 25%
15:00 +42°C° 0 mm 6 mps 726 mmHg 24%
16:00 +42°C° 0 mm 6 mps 726 mmHg 24%
17:00 +41°C° 0 mm 6 mps 726 mmHg 24%
18:00 +40°C° 0 mm 6 mps 726 mmHg 27%
19:00 +37°C° 0 mm 5 mps 726 mmHg 29%
20:00 +36°C° 0 mm 5 mps 726 mmHg 32%
21:00 +35°C° 0 mm 6 mps 726 mmHg 39%
22:00 +34°C° 0 mm 7 mps 727 mmHg 46%
23:00 +33°C° 0 mm 8 mps 727 mmHg 53%
Mostrar más

Necesitamos Su Consentimiento

Meteoprog y nuestros Proveedores de Servicios pueden almacenar y acceder a sus datos personales como cookies, identificadores de dispositivo u otras tecnologías similares de su dispositivo y procesar dichos datos para personalizar contenido y anuncios, además de ofrecer funciones de redes sociales y analizar el tráfico.

  • Almacenar y/o acceder a información en su dispositivo

    Se puede almacenar o acceder a cookies, identificadores de dispositivo u otra información de su dispositivo para los fines anteriormente indicados.

  • Anuncios y contenido personalizados, medición de anuncios y contenido, percepciones del público, y desarrollo de productos

    Los anuncios y el contenido pueden personalizarse en base a su perfil. Se pueden añadir más datos para personalizar mejor los anuncios y contenidos. Se puede medir el rendimiento de los anuncios y contenidos. Se puede obtener la percepción sobre el público que ha visto los anuncios y contenidos. Dichos datos pueden usarse para desarrollar o mejorar la experiencia del usuario, sistemas y software.

Al hacer clic en ‘Estoy De Acuerdo’ usted permitirá el uso de las cookies, identificadores de dispositivo, balizas web u otras tecnologías similares indicadas. Su configuración puede cambiarse desde el navegador de su dispositivo.

Para ciertos fines, los intereses legítimos pueden ser considerados por encima del consentimiento. Puede leer más sobre ello en nuestra Política de Privacidad y Cookies.